Regional Weather Roundup
Issued by NWS Goodland, KS

Home | Current Version | Previous Version | Graphics & Text | Print | Product List | Glossary On
Versions: 1 2 3 4 5 6 7 8 9 10 11 12 13 14 15 16 17 18 19 20 21 22 23 24 25 26 27 28 29 30 31 32 33 34 35 36 37 38 39 40 41 42 43 44 45 46 47 48 49 50
000
ASUS43 KGLD 300008
RWRGLD

GOODLAND FORECAST AREA HOURLY WEATHER ROUNDUP
NATIONAL WEATHER SERVICE GOODLAND KS
600 PM MDT MON MAY 29 2017

...OFFICIAL OBSERVATIONS...

CITY           SKY/WX    TMP DP  RH WIND       PRES   REMARKS
GOODLAND KS    MOSUNNY   70  46  42 N6        30.11F
HILL CITY KS   MOSUNNY   76  44  32 W5        30.06F
IMPERIAL NEB   SUNNY     72  36  26 N15       30.08F
MCCOOK NEB     MOSUNNY   75  38  26 N12       30.05F
AKRON CO       CLOUDY    66  43  43 W7        30.16F
BURLINGTON CO  MOSUNNY   68  46  45 CALM      30.14F
LIMON CO       RAIN      49  48  97 NW13      30.27R FOG
$$

...UNOFFICIAL OBSERVATIONS...

CITY           SKY/WX    TMP DP  RH WIND       PRES   REMARKS
LENORA KS        N/A     75  32  20 MISG        N/A
NORTON KS      MOSUNNY   73  45  35 N5        30.04F
SHARON SPRINGS   N/A     73  48  41 CALM        N/A
TRENTON NEB      N/A     72  32  23 NW7         N/A
KIT CARSON CO    N/A     65  50  58 CALM        N/A
YUMA CO        CLOUDY    68  30  24 N8        30.13S
$$




USA.gov is the U.S. government's official web portal to all federal, state and local government web resources and services.